Regional Weather Roundup
Issued by NWS

Home | Current Version | Previous Version | Text Only | Print | Product List | Glossary Off
Versions: 1 2 3 4 5 6 7 8 9 10 11 12 13 14 15 16 17 18 19 20 21 22 23 24 25 26 27 28 29 30 31 32 33 34 35 36 37 38 39 40 41 42 43 44 45 46 47 48 49 50

000
ASUS43 KBIS 221210
RWRND

NORTH DAKOTA REGIONAL WEATHER ROUNDUP
NATIONAL WEATHER SERVICE BISMARCK ND
700 AM CDT FRI SEP 22 2017

NOTE: "FAIR" INDICATES FEW OR NO CLOUDS BELOW 12,000 FEET WITH NO
SIGNIFICANT WEATHER AND/OR OBSTRUCTIONS TO VISIBILITY.


NDZ001>003-009>011-017-221300-
NORTHWEST NORTH DAKOTA

CITY           SKY/WX    TMP DP  RH WIND       PRES   REMARKS
WILLISTON      CLOUDY    46  39  76 N12       29.93F
6HR MIN TEMP:  46; 6HR MAX TEMP:  51; 6HR PCP:  0.01;

MINOT          CLOUDY    47  40  76 N13       29.91F
MINOT AFB      PTCLDY    46  40  78 N9        29.91F
$$

NDZ018>021-031>035-040>046-221300-
SOUTHWEST NORTH DAKOTA

CITY           SKY/WX    TMP DP  RH WIND       PRES   REMARKS
BISMARCK       CLOUDY    55  42  61 NE16G25   29.81S
6HR MIN TEMP:  54; 6HR MAX TEMP:  58;

DICKINSON      CLOUDY    50  37  61 NE20G29   29.85F
GARRISON         N/A     49  39  68 NE20G26   29.87R
6HR MIN TEMP:  49; 6HR MAX TEMP:  52;

HETTINGER ARPT CLOUDY    51  37  58 NE26G35   29.80F
$$

NDZ004>008-012>016-024-026-027-054-221300-
NORTHEAST NORTH DAKOTA

CITY           SKY/WX    TMP DP  RH WIND       PRES   REMARKS
GRAND FORKS    PTCLDY    55  52  89 N14       29.80R
GRND FRKS AFB  MOCLDY    55  50  83 N14       29.83R
DEVILS LAKE    CLEAR     51  47  86 N16       29.85S
$$

NDZ022-023-025-028>030-036>039-047>053-221300-
SOUTHEAST NORTH DAKOTA

CITY           SKY/WX    TMP DP  RH WIND       PRES   REMARKS
FARGO          MOCLDY    65  65 100 N9        29.74S
6HR MIN TEMP:  65; 6HR MAX TEMP:  72;

JAMESTOWN      PTCLDY    56  50  80 N18       29.75F
$$





USA.gov is the U.S. government's official web portal to all federal, state and local government web resources and services.